Temperature
11 10 10 9 9 9 9 9 9 9 9 8 8 8 8 8 8 8 8 8 8 8 8 7 7 7 7 7 7 7 7 7 7 7 7 7 8 7 7 7 8 8 8
10 10 9 9 9 9 9 9 9 8 8 8 8 8 8 8 7 7 7 7 7 7 7 7 7 7 7 7 7 7 7 7 6 6 6 6 7 7 7 7 7 7 7
10 9 9 9 8 8 8 8 8 8 8 8 8 7 7 7 7 7 7 7 7 7 7 7 7 6 6 6 6 6 6 6 6 6 6 6 5 6 6 6 6 6 6
10 9 9 8 8 8 8 8 8 8 8 8 7 7 7 7 7 7 7 7 7 7 6 6 6 6 6 6 6 6 6 6 5 5 5 5 5 5 5 5 6 6 6
9 9 8 8 8 8 7 7 7 7 7 7 7 7 7 6 6 6 6 6 6 6 6 6 6 6 6 6 5 5 5 5 5 5 5 5 5 5 4 4 5 5 5
9 9 8 8 7 7 7 7 7 6 7 7 7 6 6 6 6 6 6 6 6 6 6 5 5 5 5 5 5 5 5 5 5 4 4 4 4 4 4 4 4 4 4
9 8 8 7 7 7 7 7 6 6 6 6 6 6 6 6 6 5 5 5 5 5 5 5 5 5 5 5 5 5 4 4 4 4 4 4 4 4 4 3 3 3 3
8 8 7 7 7 6 6 6 6 6 6 6 6 6 6 5 5 5 5 5 5 5 5 4 4 5 4 4 4 4 4 4 4 4 4 4 3 3 3 3 3 3 3
8 7 7 6 6 6 6 6 6 6 6 6 6 5 5 5 5 5 4 4 4 4 4 4 4 4 4 4 4 4 4 3 3 3 3 3 3 3 3 3 2 2 2
7 7 7 6 6 6 6 5 6 5 5 5 5 5 5 5 5 4 4 4 4 4 3 4 4 4 3 3 3 3 3 3 3 3 3 3 3 2 2 2 2 2 1
7 7 6 6 6 5 5 5 5 5 5 5 5 5 5 4 4 4 4 4 4 3 3 3 3 3 3 3 3 3 3 2 2 2 2 2 2 2 2 2 1 1 1
7 6 6 6 5 5 5 5 5 5 4 4 4 4 4 4 4 4 4 4 3 3 3 3 3 3 3 2 2 2 2 2 2 2 2 2 2 2 1 1 1 1 1
6 6 6 5 5 5 5 5 5 4 4 4 4 4 4 4 4 3 3 3 3 3 3 3 3 3 2 2 2 2 2 2 2 1 1 1 1 1 1 1 1 1 1
6 6 5 5 5 5 4 4 4 4 4 4 4 3 3 3 3 3 3 3 3 3 2 2 2 2 2 2 2 1 1 1 1 1 1 1 1 1 1 1 1 0 0
6 6 5 5 5 4 4 4 4 3 3 3 3 3 3 3 3 3 3 3 2 2 2 2 2 2 2 1 1 1 1 1 1 1 1 1 0 0 0 0 0 -0 -0
6 5 5 4 4 4 4 4 3 3 3 3 3 2 2 2 2 2 2 2 2 2 2 2 2 2 1 1 1 1 0 0 0 0 0 0 -0 -0 -0 -0 -0 -1 -1
5 5 4 4 4 4 4 3 3 3 2 2 2 2 2 2 2 2 2 2 2 2 2 1 1 1 1 1 0 0 -0 -0 -0 -0 -0 -0 -0 -0 -1 -1 -1 -1 -1
5 4 4 4 3 3 3 3 2 2 2 2 2 1 1 1 1 1 1 1 1 1 1 1 1 1 0 0 -0 -0 -0 -1 -1 -1 -1 -1 -1 -1 -1 -1 -1 -1 -1
4 4 3 3 3 3 2 2 2 2 2 2 1 1 1 1 1 1 1 1 1 1 1 1 0 0 -0 -0 -1 -1 -1 -1 -1 -1 -1 -1 -1 -1 -1 -1 -1 -1 -1
3 3 3 3 2 2 2 2 1 1 1 1 1 1 1 1 1 0 0 0 0 0 0 0 -0 -0 -0 -1 -1 -1 -1 -1 -1 -1 -1 -1 -1 -1 -2 -2 -2 -2 -2
3 3 2 2 2 2 1 1 1 1 1 1 1 0 0 0 0 -0 -0 -0 -0 -0 -0 -1 -1 -1 -1 -1 -1 -1 -2 -1 -1 -1 -1 -1 -1 -1 -2 -2 -2 -2 -2
2 2 2 2 1 1 1 1 1 1 0 0 0 -0 -0 -0 -0 -1 -1 -1 -1 -1 -1 -1 -1 -1 -1 -1 -1 -2 -2 -2 -2 -2 -2 -2 -2 -2 -2 -2 -2 -2 -2
2 2 1 1 1 1 1 0 0 0 -0 -0 -0 -1 -1 -1 -1 -1 -1 -1 -2 -2 -2 -2 -2 -2 -2 -2 -2 -2 -2 -2 -2 -2 -2 -2 -2 -2 -2 -2 -2 -3 -3
1 1 1 1 1 0 0 -0 -0 -0 -0 -1 -1 -1 -1 -1 -1 -1 -1 -2 -2 -2 -2 -2 -2 -2 -2 -2 -2 -2 -2 -2 -2 -2 -2 -2 -2 -2 -2 -3 -3 -3 -3
1 1 1 0 0 -0 -0 -0 -1 -1 -1 -1 -1 -1 -2 -2 -2 -2 -2 -2 -2 -2 -2 -2 -2 -3 -2 -2 -2 -3 -3 -3 -3 -3 -2 -3 -3 -3 -3 -3 -3 -3 -3
0 0 0 -0 -0 -1 -1 -1 -1 -1 -1 -1 -2 -2 -2 -2 -2 -2 -2 -2 -2 -2 -2 -2 -3 -3 -3 -3 -3 -3 -3 -3 -3 -3 -3 -3 -3 -3 -3 -3 -3 -3 -3
Wind_Speed
5 5 5 5 5 5 5 5 4 4 3 3 3 3 2 2 1 1 3 3 2 1 1 1 1 1 1 1 1 1 0 1 1 1 2 3 3 2 2 2 1 2 2
5 5 5 5 5 5 4 5 5 4 4 3 3 2 2 2 2 1 2 3 3 2 2 1 1 1 1 1 1 1 1 1 1 0 1 2 2 2 2 2 2 2 1
6 6 5 5 5 4 5 4 5 4 4 4 2 2 2 1 1 1 1 1 2 3 2 1 1 1 2 2 2 1 2 2 1 1 1 1 2 2 2 2 2 2 2
5 5 5 5 5 5 4 4 5 4 4 4 4 4 3 2 3 2 2 2 2 2 2 2 2 1 1 2 2 1 1 1 2 1 1 1 1 1 2 2 2 2 2
6 6 6 5 4 4 4 4 4 4 4 4 4 4 3 3 2 2 2 2 2 2 2 2 2 2 2 2 2 1 2 2 2 2 2 2 2 2 2 3 3 3 2
6 6 6 5 4 4 4 3 4 4 4 4 4 4 4 3 3 2 3 2 1 1 2 2 2 2 2 2 2 3 3 3 3 2 2 2 2 2 2 3 3 3 3
6 5 6 6 5 5 4 4 4 3 4 4 4 4 4 4 4 3 3 3 2 2 3 2 2 2 2 2 2 2 3 3 3 3 2 2 2 2 2 3 3 3 3
5 5 5 5 5 5 5 4 4 3 3 4 4 4 4 3 3 3 3 3 3 3 3 3 3 3 3 2 2 2 2 2 2 3 3 2 2 2 2 3 3 3 3
4 4 4 5 5 5 5 5 4 3 4 4 4 4 4 4 4 3 3 3 3 3 3 3 3 3 2 2 2 2 3 3 3 3 3 3 3 2 2 2 2 3 4
4 4 4 4 4 4 4 4 4 4 4 4 3 3 4 4 4 3 3 3 3 3 3 3 3 3 3 3 3 2 3 3 3 3 3 4 3 3 2 3 3 3 4
4 4 3 4 3 3 4 4 4 3 3 4 3 3 4 4 4 3 4 3 3 3 3 4 4 4 4 4 4 4 4 4 4 4 4 5 4 3 3 3 3 3 4
3 3 3 3 3 3 3 3 3 3 3 3 3 3 3 3 4 4 4 3 3 3 4 4 4 4 4 4 4 5 5 5 5 5 4 5 4 5 3 3 4 4 4
3 3 3 3 3 3 3 3 3 3 3 2 2 2 2 3 3 4 4 4 4 4 4 4 4 4 4 5 5 5 5 5 5 5 5 5 5 6 4 4 4 4 4
4 4 3 3 3 3 3 3 2 2 2 2 2 2 2 3 3 3 3 3 4 4 4 4 4 4 4 5 5 5 5 5 5 5 5 6 6 6 6 5 5 4 4
4 4 4 3 3 3 3 3 2 2 2 2 3 3 2 2 2 2 3 3 3 4 4 3 4 4 4 4 4 5 5 5 5 5 6 6 7 8 7 5 5 4 4
4 4 4 3 4 4 4 3 3 3 2 3 3 2 2 2 2 3 3 3 3 3 3 3 3 4 4 5 6 5 5 5 5 5 5 6 6 7 8 9 7 6 6
3 3 4 4 3 3 4 4 4 3 3 3 2 2 2 2 3 3 3 3 3 3 3 4 4 4 5 7 7 7 5 5 5 5 5 5 5 6 5 7 8 7 8
3 3 3 3 3 2 2 3 3 3 3 3 2 2 2 2 2 3 3 3 3 3 3 4 4 4 5 7 8 7 6 5 5 5 5 5 5 5 5 5 6 6 6
2 2 2 3 2 3 3 3 3 3 3 3 3 3 3 3 3 3 3 3 2 3 3 3 4 4 5 7 8 7 4 4 5 5 5 5 5 7 7 5 6 6 5
1 2 1 2 2 3 4 4 4 4 4 4 3 3 3 3 3 3 3 3 3 3 3 4 4 4 4 7 7 6 4 4 4 4 5 6 7 7 7 6 6 6 6
1 2 2 3 3 3 4 4 4 5 4 3 2 3 3 3 3 3 2 2 3 3 3 3 4 4 5 6 7 7 4 4 4 4 4 5 7 8 8 6 5 7 5
2 2 2 3 3 3 4 4 5 4 3 2 3 3 3 3 2 2 2 2 3 3 3 3 4 3 4 5 6 7 6 5 4 4 4 5 7 7 8 6 6 7 5
2 2 3 2 2 3 4 5 4 3 3 3 3 3 2 2 3 3 3 3 3 3 3 3 3 4 3 4 7 7 7 7 4 4 6 6 6 6 5 6 6 5 3
2 2 3 3 3 3 4 4 3 3 3 3 3 2 2 2 3 3 3 3 3 3 3 3 3 3 3 3 3 3 4 5 4 4 5 6 5 4 4 4 3 3 3
2 2 3 3 4 3 3 3 4 4 3 3 3 2 2 3 3 3 3 4 4 5 4 3 3 4 4 4 5 3 3 2 2 2 2 2 2 2 2 2 2 2 2
2 2 3 3 3 3 3 3 4 4 4 3 3 3 2 2 2 2 3 4 5 5 5 5 5 4 5 6 5 5 5 5 4 2 2 3 3 3 3 3 2 2 2
Wind_Direction
181 171 171 169 166 163 165 172 168 167 157 162 168 169 178 172 153 151 156 165 164 185 167 152 175 177 200 217 207 210 276 318 316 327 307 289 265 243 237 235 238 238 221
178 173 169 165 165 165 169 172 166 171 173 174 176 178 170 179 170 155 166 177 174 180 190 168 195 192 188 227 226 203 213 271 281 257 310 307 301 286 249 233 235 240 220
185 176 170 169 162 167 171 177 173 174 174 165 162 156 138 128 139 161 176 191 184 180 190 196 180 187 186 213 225 204 204 223 251 236 177 217 247 303 274 241 237 240 241
181 172 168 169 168 171 168 174 173 173 171 164 169 168 174 188 200 188 185 177 175 181 193 201 189 187 202 211 223 213 228 200 227 252 242 233 242 250 293 283 255 252 254
176 171 168 165 159 157 161 167 168 173 171 174 178 182 189 195 178 161 165 178 175 178 191 198 194 203 210 206 205 216 232 220 217 223 242 253 270 253 241 275 285 287 266
166 158 154 149 152 152 157 165 169 175 174 178 183 188 191 184 169 174 185 186 181 190 198 202 206 219 219 213 208 207 219 228 229 225 223 223 231 244 240 258 277 281 277
149 151 155 160 163 162 165 175 177 179 180 179 186 192 190 187 188 189 192 190 188 201 212 213 218 227 231 220 212 206 222 227 227 224 228 229 235 239 241 256 275 283 281
149 161 168 167 168 167 169 174 179 184 187 192 195 192 189 190 196 197 196 199 205 206 202 207 219 223 222 225 221 210 222 225 227 236 228 234 238 233 228 238 255 281 281
155 158 163 161 166 169 173 174 177 183 187 198 200 191 188 193 199 203 198 200 205 207 195 199 212 219 216 217 218 223 225 218 225 229 229 232 239 232 230 237 237 238 271
152 155 159 160 162 163 167 169 177 185 187 192 200 196 190 193 199 198 201 202 203 200 194 200 208 211 212 215 214 225 234 224 231 230 233 238 238 232 225 229 244 241 249
162 162 160 160 156 153 159 166 174 183 189 192 200 199 199 195 194 200 207 205 204 200 205 207 207 208 212 216 216 221 226 229 232 236 235 239 238 234 226 227 237 244 246
152 154 159 158 156 166 175 177 178 182 189 189 197 202 203 195 195 203 209 208 210 210 212 213 212 215 217 218 221 224 228 227 229 231 230 238 243 240 233 229 235 241 247
161 159 161 171 175 184 188 184 177 178 178 177 191 205 210 204 207 210 209 210 217 214 213 215 218 219 219 220 224 226 232 231 230 229 226 230 232 237 236 235 235 240 253
184 182 188 193 190 193 196 187 178 167 166 172 190 206 217 217 221 222 217 219 222 223 220 219 223 223 223 223 227 229 234 234 234 233 228 225 226 228 230 234 230 234 244
201 196 199 199 197 203 204 186 180 179 173 185 201 215 220 227 232 242 240 237 238 237 228 223 228 231 227 230 231 230 236 236 236 237 233 229 226 229 231 235 229 225 233
211 205 203 202 203 205 202 189 187 187 178 193 211 215 218 237 241 244 246 242 246 246 239 234 233 238 242 244 242 241 239 237 235 240 242 236 227 233 241 244 242 235 233
228 217 215 212 212 208 197 193 189 177 178 188 201 208 214 230 239 242 244 240 239 242 243 244 242 247 248 249 250 249 240 236 236 237 241 246 238 232 234 241 247 249 249
227 223 207 202 206 194 180 175 159 168 181 188 201 208 215 230 238 242 245 252 242 238 241 244 245 252 251 252 253 254 242 239 239 237 238 240 242 232 226 230 238 242 245
205 210 202 194 197 190 178 163 168 180 190 203 211 212 213 227 237 247 252 257 252 248 252 252 251 253 256 256 257 255 243 240 243 242 241 240 242 239 228 227 235 246 253
188 213 208 186 195 198 170 170 189 192 207 215 215 215 217 222 231 245 257 261 259 256 260 265 258 251 256 261 263 259 239 238 244 248 247 246 246 247 234 226 227 240 246
219 216 204 196 205 194 170 186 199 208 210 205 211 220 224 227 232 244 253 261 263 261 257 266 268 257 258 262 261 258 242 234 238 244 247 248 252 251 247 240 232 240 246
239 217 201 209 204 178 174 200 213 204 184 193 212 224 226 226 223 230 248 246 249 254 254 264 277 272 261 262 263 259 253 251 241 246 249 251 254 252 248 246 245 248 251
230 212 197 204 199 181 181 209 214 177 178 196 214 223 227 228 219 219 231 240 243 248 250 252 265 275 270 261 264 265 262 254 250 249 253 254 252 255 250 248 247 241 234
233 213 192 205 221 200 196 208 194 176 183 204 218 215 223 235 231 228 225 233 239 245 249 250 260 270 274 268 260 257 261 257 257 258 257 255 259 259 251 248 247 236 230
234 208 200 215 226 208 203 196 185 181 194 209 217 220 226 234 236 238 237 238 239 241 246 246 244 250 260 264 271 264 251 237 241 247 252 250 252 245 243 240 235 234 232
221 210 210 216 227 211 208 200 188 188 195 211 216 221 223 231 234 245 275 266 253 261 259 257 257 262 269 275 273 270 266 259 241 228 228 238 235 234 235 236 236 233 230
Height
1467 1468 1469 1471 1472 1474 1475 1476 1477 1479 1480 1481 1482 1483 1485 1486 1487 1489 1490 1491 1491 1492 1493 1493 1494 1494 1495 1496 1496 1497 1497 1497 1498 1498 1497 1497 1497 1497 1498 1498 1498 1498 1498
1463 1464 1466 1467 1469 1470 1471 1472 1474 1475 1476 1478 1479 1481 1482 1483 1484 1486 1486 1487 1488 1489 1490 1490 1491 1491 1492 1492 1493 1494 1494 1494 1495 1495 1495 1494 1494 1493 1494 1494 1494 1494 1494
1459 1461 1462 1463 1465 1466 1467 1469 1470 1472 1473 1475 1477 1478 1479 1480 1481 1482 1483 1484 1485 1486 1486 1487 1487 1488 1488 1489 1489 1490 1491 1491 1492 1493 1494 1493 1491 1490 1490 1491 1491 1491 1491
1456 1457 1458 1460 1461 1463 1464 1466 1467 1469 1470 1472 1473 1474 1474 1475 1477 1478 1479 1480 1481 1482 1483 1483 1484 1484 1485 1486 1486 1487 1487 1488 1488 1489 1490 1491 1490 1489 1487 1487 1487 1487 1487
1452 1454 1455 1456 1458 1460 1461 1463 1464 1465 1467 1468 1470 1471 1472 1473 1474 1475 1476 1477 1478 1479 1479 1480 1480 1481 1481 1482 1483 1483 1484 1484 1485 1485 1486 1486 1487 1486 1486 1484 1483 1483 1483
1449 1451 1453 1454 1456 1457 1458 1460 1461 1462 1464 1465 1466 1468 1469 1470 1471 1471 1472 1473 1474 1475 1476 1476 1477 1477 1478 1478 1479 1479 1480 1480 1481 1481 1482 1482 1483 1482 1482 1481 1480 1479 1479
1447 1449 1450 1452 1453 1454 1456 1457 1458 1459 1461 1462 1463 1464 1466 1467 1467 1468 1469 1469 1470 1471 1472 1472 1473 1473 1474 1474 1475 1475 1476 1476 1477 1477 1478 1478 1478 1479 1479 1478 1477 1475 1474
1444 1446 1448 1450 1451 1452 1453 1454 1455 1456 1458 1459 1460 1461 1462 1464 1464 1465 1466 1466 1466 1467 1468 1469 1469 1470 1470 1470 1471 1471 1472 1472 1472 1473 1473 1474 1474 1475 1475 1475 1474 1472 1470
1443 1445 1447 1448 1449 1450 1451 1452 1453 1454 1455 1456 1457 1458 1459 1460 1461 1462 1463 1463 1463 1464 1464 1465 1465 1466 1466 1467 1467 1467 1467 1468 1468 1468 1469 1469 1470 1470 1470 1470 1470 1470 1467
1441 1443 1445 1446 1447 1448 1449 1450 1450 1451 1452 1453 1454 1455 1456 1457 1458 1458 1459 1459 1460 1460 1461 1461 1461 1462 1462 1463 1463 1463 1463 1463 1463 1464 1464 1465 1465 1465 1465 1466 1466 1466 1465
1439 1441 1442 1444 1445 1446 1446 1447 1448 1448 1449 1450 1451 1452 1452 1453 1454 1455 1455 1456 1456 1457 1457 1457 1458 1458 1458 1459 1459 1459 1459 1459 1459 1459 1460 1460 1460 1461 1460 1461 1461 1461 1461
1438 1439 1440 1441 1442 1443 1444 1444 1445 1445 1446 1447 1448 1448 1449 1450 1450 1451 1451 1452 1452 1452 1453 1453 1454 1454 1454 1454 1455 1454 1455 1454 1454 1455 1455 1455 1456 1456 1456 1456 1456 1457 1457
1436 1437 1438 1438 1439 1440 1441 1441 1442 1442 1443 1444 1444 1445 1445 1446 1446 1447 1447 1448 1448 1448 1449 1449 1449 1450 1450 1450 1450 1450 1450 1450 1450 1450 1450 1451 1451 1451 1451 1451 1451 1452 1452
1433 1434 1435 1436 1436 1437 1438 1438 1439 1439 1440 1440 1441 1441 1441 1442 1442 1443 1443 1444 1444 1444 1445 1445 1445 1445 1445 1446 1446 1446 1446 1445 1445 1445 1446 1446 1446 1446 1447 1447 1447 1447 1447
1430 1431 1432 1433 1433 1434 1434 1435 1435 1436 1436 1437 1437 1437 1438 1438 1439 1439 1439 1440 1440 1441 1441 1441 1441 1441 1441 1441 1441 1441 1441 1441 1440 1440 1441 1441 1441 1441 1442 1442 1442 1442 1442
1427 1428 1429 1429 1430 1430 1431 1431 1432 1432 1433 1433 1433 1434 1434 1434 1435 1435 1435 1436 1436 1436 1437 1437 1437 1437 1437 1437 1437 1437 1436 1436 1436 1435 1436 1436 1436 1436 1436 1437 1438 1438 1438
1424 1424 1425 1426 1426 1427 1427 1427 1428 1429 1429 1429 1430 1430 1430 1431 1431 1431 1431 1432 1432 1432 1432 1432 1433 1432 1433 1433 1433 1432 1432 1431 1431 1431 1431 1431 1431 1431 1432 1432 1433 1433 1433
1420 1421 1421 1422 1423 1423 1424 1424 1425 1425 1426 1426 1426 1427 1427 1427 1427 1427 1427 1428 1428 1428 1428 1428 1428 1428 1428 1428 1428 1428 1427 1427 1426 1426 1426 1426 1426 1426 1427 1427 1428 1428 1428
1416 1417 1418 1418 1419 1419 1420 1420 1421 1422 1422 1422 1423 1423 1423 1423 1423 1423 1423 1424 1424 1423 1424 1424 1423 1423 1423 1423 1423 1423 1422 1421 1421 1421 1422 1422 1422 1422 1423 1423 1423 1423 1424
1413 1413 1414 1414 1415 1416 1416 1416 1417 1418 1418 1419 1419 1420 1420 1420 1420 1420 1420 1420 1420 1419 1419 1419 1419 1419 1419 1419 1418 1418 1417 1417 1416 1417 1417 1417 1417 1418 1418 1418 1418 1418 1418
1409 1410 1410 1410 1411 1412 1412 1412 1413 1414 1415 1415 1416 1416 1416 1416 1416 1416 1416 1416 1416 1416 1415 1415 1415 1415 1414 1414 1414 1413 1413 1413 1412 1412 1412 1412 1413 1413 1413 1414 1414 1414 1415
1406 1406 1406 1407 1407 1408 1408 1409 1409 1410 1411 1412 1412 1412 1413 1413 1413 1413 1413 1413 1413 1412 1412 1411 1411 1411 1410 1410 1410 1409 1409 1409 1409 1408 1408 1408 1408 1408 1409 1409 1410 1411 1411
1402 1403 1403 1403 1404 1404 1405 1405 1406 1407 1407 1408 1408 1408 1409 1409 1409 1409 1409 1409 1409 1409 1408 1408 1407 1407 1407 1406 1406 1406 1405 1405 1405 1404 1404 1405 1404 1404 1405 1405 1406 1406 1407
1399 1399 1399 1399 1400 1401 1401 1401 1402 1403 1403 1404 1404 1405 1405 1405 1405 1406 1406 1406 1405 1405 1405 1404 1404 1403 1403 1403 1402 1402 1402 1402 1401 1401 1401 1401 1401 1401 1401 1401 1402 1402 1402
1395 1396 1396 1396 1396 1397 1397 1398 1399 1399 1400 1400 1401 1401 1401 1402 1402 1402 1402 1402 1402 1402 1402 1401 1401 1400 1399 1399 1399 1399 1398 1398 1398 1398 1398 1397 1397 1397 1397 1397 1398 1398 1399
1392 1392 1392 1392 1392 1393 1393 1394 1395 1396 1396 1396 1397 1397 1398 1398 1399 1398 1399 1399 1399 1399 1399 1398 1398 1397 1397 1396 1396 1396 1395 1395 1395 1395 1394 1394 1394 1393 1394 1394 1394 1395 1395